Location: Newark
(38.9311°S, 68.8090°E)
Time: 00:02:35
(UTC+00:00)

LightSail 2 - Visible Passes

Search period start: 20 January 2020 00:00
Search period end: 30 January 2020 00:00
Orbit: 703 x 720 km, 24.0° (Epoch: 19 January)

Date Brightness Start Highest point End Pass type
(mag) Time Alt. Az. Time Alt. Az. Time Alt. Az.
24 Jan 7.2 23:54:33 10° NNW 23:56:56 13° N 23:59:19 10° NE visible
25 Jan 7.2 22:57:51 11° N 22:58:41 12° N 23:00:28 10° NNE visible
26 Jan 7.1 23:42:16 10° NNW 23:45:04 15° N 23:47:52 10° NE visible
27 Jan 7.1 22:46:56 14° N 22:46:56 14° N 22:49:23 10° NE visible
28 Jan 7.0 23:30:59 12° NNW 23:33:10 15° N 23:35:59 10° NNE visible
29 Jan 7.1 22:36:10 14° NNE 22:36:10 14° NNE 22:37:43 10° NE visible
